EW2997 Weather Reports


time (UTC)temp
C
wind
direction
speed
KPH
gust
KPH
rain 1hr
cm
rain 24hr
cm
rain mn
cm
humidity
%
barometer
mb
20260509072854 10 168 0.0 0.0 0.00 0.00 0.00 84 1013.9
20260509065852 10 138 0.0 0.0 0.00 0.00 0.00 83 1013.9
20260509062850 11 215 0.0 0.0 0.00 0.00 0.00 77 1014.2
20260509055848 11 19 3.2 3.2 0.00 0.00 0.00 73 1014.5
20260509052848 10 30 0.0 0.0 0.00 0.00 0.00 84 1014.5
20260509045848 11 214 0.0 0.0 0.00 0.00 0.00 82 1014.5
20260509042846 11 138 1.6 1.6 0.00 0.00 0.00 79 1014.5
20260509035846 11 318 0.0 0.0 0.00 0.00 0.00 82 1014.9
20260509032846 11 150 1.6 1.6 0.00 0.00 0.00 80 1014.9
20260509025842 11 156 0.0 0.0 0.00 0.00 0.00 81 1015.2
20260509022838 11 198 0.0 0.0 0.00 0.00 0.00 77 1015.2
20260509015834 11 168 0.0 0.0 0.00 0.00 0.00 75 1014.9
20260509012832 12 176 0.0 0.0 0.00 0.00 0.00 76 1014.9
20260509005827 12 200 0.0 0.0 0.00 0.00 0.00 73 1014.5
20260509002826 13 156 1.6 1.6 0.00 0.00 0.00 69 1014.9
20260508235825 13 131 3.2 3.2 0.00 0.00 0.00 65 1014.5
20260508232821 16 276 0.0 0.0 0.00 0.00 0.00 55 1014.5
20260508225820 17 312 4.8 4.8 0.00 0.00 0.00 49 1014.5
20260508222815 17 330 3.2 3.2 0.00 0.00 0.00 47 1014.9
20260508215812 16 9 3.2 3.2 0.00 0.00 0.00 49 1014.9
20260508212809 16 269 9.7 9.7 0.00 0.00 0.00 51 1014.9
20260508205806 16 48 9.7 9.7 0.00 0.00 0.00 47 1014.9
20260508202801 16 312 4.8 4.8 0.00 0.00 0.00 48 1014.9
20260508195759 16 358 8.0 9.7 0.00 0.00 0.00 45 1014.9
20260508192756 18 132 3.2 3.2 0.00 0.00 0.00 43 1015.2
20260508185755 17 317 8.0 9.7 0.00 0.00 0.00 41 1015.2
20260508182754 17 0 3.2 3.2 0.00 0.00 0.00 40 1015.2
20260508175752 17 258 14.5 16.1 0.00 0.00 0.00 42 1016.0
20260508172750 17 247 14.5 16.1 0.00 0.00 0.00 44 1016.0
20260508165749 16 300 8.0 8.0 0.00 0.00 0.00 44 1016.3
20260508162748 15 240 0.0 0.0 0.00 0.00 0.00 50 1016.7
20260508155743 13 244 4.8 4.8 0.00 0.00 0.00 51 1017.4
20260508152742 13 288 6.4 6.4 0.00 0.00 0.00 52 1017.0
20260508145738 13 293 9.7 9.7 0.00 0.00 0.00 51 1017.0
20260508142736 12 221 4.8 4.8 0.00 0.00 0.00 53 1017.7
20260508135735 11 169 8.0 9.7 0.00 0.00 0.00 57 1017.7
20260508132733 11 281 6.4 6.4 0.00 0.00 0.00 59 1018.0
20260508125729 10 198 4.8 4.8 0.00 0.00 0.00 64 1018.4
20260508122724 8 282 6.4 6.4 0.00 0.00 0.00 67 1018.4
20260508115721 8 248 1.6 1.6 0.00 0.00 0.00 70 1018.0
20260508112720 4 227 0.0 0.0 0.00 0.00 0.00 87 1017.7
20260508105717 3 168 0.0 0.0 0.00 0.00 0.00 87 1017.4
20260508102712 2 180 0.0 0.0 0.00 0.00 0.00 87 1017.0
20260508095707 2 119 3.2 3.2 0.00 0.00 0.00 88 1017.0
20260508092702 2 192 0.0 0.0 0.00 0.00 0.00 86 1016.7
20260508085657 3 144 0.0 0.0 0.00 0.00 0.00 86 1016.7
20260508082655 3 144 0.0 0.0 0.00 0.00 0.00 84 1016.7
20260508075650 3 156 0.0 0.0 0.00 0.00 0.00 82 1016.3